This demonstration page uses our WeatherBlox Daily Observations layout. Learn more.

Left ArrowRight Arrow

39.01783, -85.05884

Hourly Observations for October 27, 2016

Temp ( °F °C ) Dew Point ( °F °C ) Humidity (%) Winds ( mph kmh ) Pressure ( in mb ) Visibility ( mi km ) Precip ( " mm )
12:52 am 00:52 Cloudy 64 17.8 51 10.6 63 63 SSW 9 15 30.04 1017 10 16 0.00 0.00
1:52 am 01:52 Cloudy 64 17.8 50 10 60 60 SSW 7 11 30.04 1017 10 16 0.00 0.00
2:52 am 02:52 Cloudy 64 17.8 50 10 60 60 SSW 8 13 30.04 1017 10 16 0.00 0.00
3:52 am 03:52 Cloudy 64 17.8 50 10 60 60 SW 7 11 30.03 1017 10 16 0.00 0.00
4:52 am 04:52 Cloudy 64 17.8 50 10 60 60 SW 8 13 30.02 1017 10 16 0.00 0.00
5:52 am 05:52 Cloudy 64 17.8 51 10.6 63 63 SSW 8 13 30.02 1017 10 16 0.00 0.00
6:52 am 06:52 Cloudy 63 17.2 52 11.1 68 68 SW 8 13 30.04 1017 10 16 0.00 0.00
6:59 am 06:59 Cloudy with Light Rain 63 17 54 12 73 73 SW 7 11 30.06 1018 8 13 0.00 0.03
7:52 am 07:52 Cloudy 63 17.2 55 12.8 76 76 WSW 9 15 30.05 1018 10 16 0.00 0.03
8:52 am 08:52 Cloudy 63 17.2 56 13.3 78 78 WSW 8 13 30.06 1018 9 14 0.00 0.00
9:52 am 09:52 Cloudy 62 16.7 57 13.9 84 84 WSW 8 13 30.09 1019 8 13 0.00 0.00
10:26 am 10:26 Cloudy 59 15 55 13 88 88 WNW 16 26 30.12 1020 8 13 0.00 0.00
10:52 am 10:52 Cloudy with Light Rain 58 14.4 55 12.8 90 90 W 17 28 30.12 1020 7 11 0.00 0.03
11:52 am 11:52 Cloudy 56 13.3 52 11.1 87 87 WNW 14 22 30.14 1021 8 13 0.00 0.03
12:52 pm 12:52 Cloudy 55 12.8 50 10 83 83 WNW 12 19 30.16 1021 10 16 0.00 0.00
1:11 pm 13:11 Cloudy 55 13 48 9 77 77 W 14 22 30.18 1022 10 16 0.00 0.00
1:52 pm 13:52 Cloudy 55 12.8 47 8.3 74 74 WNW 15 24 30.17 1022 10 16 0.00 0.00
2:52 pm 14:52 Cloudy 54 12.2 47 8.3 77 77 NW 13 20 30.17 1022 10 16 0.00 0.00
3:52 pm 15:52 Cloudy 54 12.2 46 7.8 75 75 WNW 12 19 30.18 1022 10 16 0.00 0.00
4:52 pm 16:52 Cloudy 54 12.2 45 7.2 72 72 WNW 7 11 30.20 1023 10 16 0.00 0.00
5:52 pm 17:52 Cloudy 54 12.2 45 7.2 72 72 WNW 8 13 30.22 1023 10 16 0.00 0.00
6:52 pm 18:52 Cloudy 53 11.7 45 7.2 74 74 WNW 8 13 30.22 1024 10 16 0.00 0.00
7:52 pm 19:52 Cloudy 53 11.7 45 7.2 74 74 NW 7 11 30.24 1024 10 16 0.00 0.00
8:39 pm 20:39 Partly Cloudy 50 10 45 7 82 82 WNW 5 7 30.30 1026 10 16 0.00 0.00
8:52 pm 20:52 Mostly Clear 50 10 44 6.7 80 80 W 5 7 30.25 1025 10 16 0.00 0.00
9:52 pm 21:52 Mostly Clear 48 8.9 44 6.7 86 86 W 3 6 30.26 1025 10 16 0.00 0.00
10:52 pm 22:52 Mostly Clear 48 8.9 44 6.7 86 86 W 3 6 30.26 1025 10 16 0.00 0.00
11:52 pm 23:52 Mostly Clear 47 8.3 43 6.1 86 86 Calm 30.27 1025 10 16 0.00 0.00

Powered by AerisWeather